This is the latest recevied weather packets stored in our database for station/object KE5WTH-14. If no packets are shown the sender has not sent any weather packets the latest 1 day(s).
| Time | Temp. | Humidity | Pressure | Rain* | Wind** | Luminosity | Snow |
|---|---|---|---|---|---|---|---|
| 1778047625 | 13.89° C | 78% | 1010.2 hPa | 0 mm | 3.58 m/s, 357° | 0 W/m² | - |
| 1778047574 | 14.44° C | 78% | 1010.2 hPa | 0 mm | 3.58 m/s, 14° | 0 W/m² | - |
| 1778047504 | 13.89° C | 78% | 1010.2 hPa | 0 mm | 3.58 m/s, 8° | 0 W/m² | - |
| 1778047444 | 13.89° C | 79% | 1010.1 hPa | 0 mm | 3.58 m/s, 11° | 0 W/m² | - |
| 1778047386 | 14.44° C | 78% | 1010.2 hPa | 0 mm | 3.58 m/s, 0° | 0 W/m² | - |
| 1778047322 | 14.44° C | 78% | 1010 hPa | 0 mm | 4.02 m/s, 18° | 0 W/m² | - |
| 1778047204 | 14.44° C | 79% | 1010.1 hPa | 0 mm | 3.13 m/s, 0° | 0 W/m² | - |
| 1778047177 | 14.44° C | 78% | 1010 hPa | 0 mm | 2.68 m/s, 13° | 0 W/m² | - |
| 1778047080 | 14.44° C | 78% | 1010 hPa | 0 mm | 4.02 m/s, 4° | 0 W/m² | - |
| 1778047018 | 14.44° C | 78% | 1010 hPa | 0 mm | 3.58 m/s, 0° | 0 W/m² | - |
| 1778046958 | 14.44° C | 79% | 1010.1 hPa | 0 mm | 2.24 m/s, 0° | 0 W/m² | - |
| 1778046895 | 14.44° C | 78% | 1010.2 hPa | 0 mm | 2.68 m/s, 0° | 0 W/m² | - |
| 1778046835 | 14.44° C | 78% | 1010.1 hPa | 0 mm | 2.68 m/s, 0° | 0 W/m² | - |
| 1778046781 | 14.44° C | 78% | 1010.2 hPa | 0 mm | 2.68 m/s, 0° | 0 W/m² | - |
| 1778046708 | 14.44° C | 78% | 1010.1 hPa | 0 mm | 3.13 m/s, 21° | 0 W/m² | - |
| 1778046648 | 14.44° C | 78% | 1010.1 hPa | 0 mm | 3.13 m/s, 0° | 0 W/m² | - |
| 1778046586 | 14.44° C | 78% | 1010.1 hPa | 0 mm | 2.68 m/s, 4° | 0 W/m² | - |
| 1778046525 | 14.44° C | 78% | 1010.1 hPa | 0 mm | 2.68 m/s, 357° | 0 W/m² | - |
| 1778046463 | 14.44° C | 78% | 1010.1 hPa | 0 mm | 3.58 m/s, 0° | 0 W/m² | - |
| 1778046410 | 14.44° C | 78% | 1010.2 hPa | 0 mm | 4.02 m/s, 4° | 0 W/m² | - |
| 1778046379 | 14.44° C | 78% | 1010.2 hPa | 0 mm | 4.02 m/s, 0° | 0 W/m² | - |
| 1778046348 | 14.44° C | 78% | 1010.1 hPa | 0 mm | 3.58 m/s, 0° | 0 W/m² | - |
| 1778046318 | 14.44° C | 78% | 1010.1 hPa | 0 mm | 3.58 m/s, 6° | 0 W/m² | - |
| 1778046154 | 14.44° C | 78% | 1010.1 hPa | 0 mm | 4.02 m/s, 4° | 0 W/m² | - |
| 1778046095 | 14.44° C | 78% | 1010 hPa | 0 mm | 3.58 m/s, 11° | 0 W/m² | - |
* Rain latest hour (hover to see other rain measurements)
** Current wind speed in m/s (hover to see current wind gust speed)